Beaufort MCAS, SC

4:34 PM EDT on April 25, 2018 (GMT -0400)
Beaufort Marine Corps Air Station

Weather History for KNBC - May, 2013

Change the Weather History Date:

Tuesday, May 28, 2013

  Actual Average Record
Temperature  
Mean Temperature 74 °F -  
Max Temperature 84 °F 84 °F 97 °F (1964)
Min Temperature 66 °F 66 °F 47 °F (1961)
Cooling Degree Days 9    
Growing Degree Days 24 (Base 50)    
Moisture  
Dew Point 64 °F    
Average Humidity 68    
Maximum Humidity 90    
Minimum Humidity 49    
Precipitation  
Precipitation 0.00 in - - ()
Sea Level Pressure  
Sea Level Pressure 30.22 in    
Wind  
Wind Speed 3 mph (SSE)    
Max Wind Speed 10 mph    
Max Gust Speed 18 mph    
Visibility 10 miles    
Events      
Averages and records for this station are not official NWS values.
T = Trace of Precipitation, MM = Missing Value Source: NWS Daily Summary

Daily Weather History Graph

Daily Weather History Graph

Search for Another Location

Airport or City:

Astronomy

May. 28, 2013 Rise Set
Actual Time 6:17 AM EDT 8:23 PM EDT
Civil Twilight 5:49 AM EDT 8:50 PM EDT
Nautical Twilight 5:15 AM EDT 9:24 PM EDT
Astronomical Twilight 4:39 AM EDT 10:01 PM EDT
Moon 11:52 PM EDT (5/28) 9:59 AM EDT (5/28)
Length of Visible Light 15h 01m
Length of Day
14h 05m
Waning Gibbous, 83% of the Moon is Illuminated
May 28
Waning Gibbous
May 31
Last Quarter
Jun 8
New
Jun 16
First Quarter
Jun 23
Full

Hourly Weather History & Observations

Time (EDT) Temp. Heat Index Dew Point Humidity Pressure Visibility Wind Dir Wind Speed Gust Speed Precip Events Conditions
12:56 AM 73.9 °F - 64.9 °F 73% 30.22 in 10.0 mi South 3.5 mph - N/A   Clear
1:56 AM 73.9 °F - 64.9 °F 73% 30.20 in 10.0 mi South 3.5 mph - N/A   Clear
2:56 AM 70.0 °F - 63.0 °F 78% 30.19 in 10.0 mi SW 3.5 mph - N/A   Clear
3:56 AM 66.9 °F - 63.0 °F 87% 30.19 in 10.0 mi Calm Calm - N/A   Clear
4:56 AM 66.0 °F - 63.0 °F 90% 30.19 in 10.0 mi Calm Calm - N/A   Clear
5:56 AM 66.9 °F - 63.0 °F 87% 30.20 in 10.0 mi Calm Calm - N/A   Clear
6:56 AM 66.9 °F - 63.0 °F 87% 30.21 in 10.0 mi Calm Calm - N/A   Clear
7:56 AM 73.0 °F - 66.9 °F 81% 30.22 in 10.0 mi Calm Calm - N/A   Scattered Clouds
8:56 AM 78.1 °F - 64.9 °F 64% 30.22 in 10.0 mi Variable 3.5 mph - N/A   Scattered Clouds
9:56 AM 79.0 °F - 64.0 °F 60% 30.23 in 10.0 mi SSE 4.6 mph - N/A   Mostly Cloudy
10:56 AM 80.1 °F 81.5 °F 63.0 °F 56% 30.24 in 10.0 mi South 4.6 mph - N/A   Mostly Cloudy
11:56 AM 82.0 °F 83.0 °F 62.1 °F 51% 30.26 in 10.0 mi SSE 4.6 mph - N/A   Mostly Cloudy
12:56 PM 82.0 °F 83.0 °F 62.1 °F 51% 30.25 in 10.0 mi South 4.6 mph - N/A   Mostly Cloudy
1:56 PM 82.9 °F 83.7 °F 62.1 °F 49% 30.25 in 10.0 mi South 6.9 mph - N/A   Mostly Cloudy
2:56 PM 82.9 °F 84.0 °F 63.0 °F 51% 30.23 in 10.0 mi South 6.9 mph - N/A   Mostly Cloudy
3:56 PM 82.9 °F 83.7 °F 62.1 °F 49% 30.22 in 10.0 mi SSE 6.9 mph - N/A   Mostly Cloudy
4:56 PM 82.0 °F 83.0 °F 62.1 °F 51% 30.21 in 10.0 mi SSE 5.8 mph 18.4 mph N/A   Mostly Cloudy
5:56 PM 81.0 °F 82.2 °F 63.0 °F 54% 30.20 in 10.0 mi SSE 10.4 mph 18.4 mph N/A   Mostly Cloudy
6:56 PM 79.0 °F - 62.1 °F 56% 30.19 in 10.0 mi SE 3.5 mph 17.3 mph N/A   Scattered Clouds
7:56 PM 75.9 °F - 63.0 °F 64% 30.20 in 10.0 mi SSE 4.6 mph - N/A   Scattered Clouds
8:56 PM 73.9 °F - 64.0 °F 71% 30.20 in 10.0 mi SE 3.5 mph - N/A   Scattered Clouds
9:56 PM 73.0 °F - 64.9 °F 76% 30.22 in 10.0 mi SE 4.6 mph - N/A   Partly Cloudy
10:56 PM 72.0 °F - 66.0 °F 81% 30.22 in 10.0 mi SE 3.5 mph - N/A   Partly Cloudy
11:56 PM 73.0 °F - 66.9 °F 81% 30.22 in 10.0 mi SE 4.6 mph - N/A   Partly Cloudy